[[{"header":{"parameterUnit":"m.s-1","parameterCategory":1,"la1":30.2991,"la2":30.254,"lo1":-89.0895,"lo2":-89.0444,"dy":0.0017,"dx":0.0017,"nx":28,"ny":28,"refTime":"2023-10-28T09:00:00:Z","depth":0,"parameterNumber":2,"parameterNumberName":"U-component_of_WINDS"},"data":[0,0,0,0,0,0,0,0,0,0,0,0,0,0,0,0,0,0,0,0,0,0,0,0,0,0,0,0,0,0,0,0,0,0,0,0,0,0,0,0,0,0,0,0,0,0,0,0,0,0,0,0,0,0,0,0,0,0,-3.3315,-3.3316,0,-3.3384,-3.3385,-3.3385,-3.3315,-3.3312,-3.3309,-3.3307,-3.3378,-3.3383,-3.3387,0,0,0,0,0,0,0,0,0,0,0,0,0,-3.3124,-3.3128,-3.3315,-3.3316,-3.3317,-3.3384,-3.3385,-3.3386,-3.3315,-3.3312,-3.3309,-3.3305,-3.3377,-3.3382,-3.3387,0,0,0,0,0,0,0,0,0,0,0,0,0,-3.3202,-3.3129,-3.3315,-3.329,-3.3288,-3.3383,-3.3385,-3.3386,-3.3316,-3.3312,-3.3308,-3.3304,-3.3375,-3.3382,-3.3388,-3.3512,0,0,-3.3409,-3.3412,0,0,0,0,0,0,0,0,-3.3197,-3.3209,-3.3292,-3.3291,-3.329,-3.3336,-3.3344,-3.3428,-3.3317,-3.3305,-3.3307,-3.3302,-3.3368,-3.3375,-3.3397,-3.3516,-3.3519,-3.3409,-3.3413,-3.3416,-3.3418,0,0,0,0,0,0,0,-3.3192,-3.3205,-3.3342,-3.3294,-3.3292,-3.3275,-3.3282,-3.3359,-3.3359,-3.3306,-3.3301,-3.331,-3.3366,-3.3391,-3.3398,-3.352,-3.3409,-3.3415,-3.3419,-3.3422,-3.3744,-3.3749,0,0,0,0,0,0,-3.3189,-3.3201,-3.334,-3.3344,-3.3232,-3.3282,-3.3289,-3.3326,-3.3358,-3.3359,-3.3314,-3.3307,-3.3381,-3.339,-3.34,-3.3547,-3.3416,-3.3423,-3.3426,-3.374,-3.3745,-3.375,0,0,0,0,0,0,-3.3185,-3.3202,-3.3337,-3.3271,-3.3287,-3.329,-3.3331,-3.3329,-3.3353,-3.3364,-3.3363,-3.3338,-3.3378,-3.3391,-3.3485,-3.3549,-3.3426,-3.3432,-3.3734,-3.3741,-3.3748,-3.3843,0,0,0,0,0,0,-3.318,-3.3201,-3.3248,-3.3273,-3.3291,-3.342,-3.3335,-3.3334,-3.3365,-3.3356,-3.3387,-3.3388,-3.3376,-3.3475,-3.3492,-3.3556,-3.3437,-3.3729,-3.3738,-3.3746,-3.3834,-3.3852,-3.3868,0,0,0,0,0,-3.3174,-3.3272,-3.3251,-3.3268,-3.3349,-3.3424,-3.3435,-3.3419,-3.337,-3.3417,-3.3424,-3.3387,-3.354,-3.3486,-3.3503,-3.3571,-3.3725,-3.3735,-3.3745,-3.3826,-3.3849,-3.3867,0,0,0,0,0,0,-3.3255,-3.3275,-3.3251,-3.3361,-3.3391,-3.3412,-3.3471,-3.3443,-3.3488,-3.3478,-3.3457,-3.3464,-3.3564,-3.3577,-3.3516,-3.3693,-3.3624,-3.3639,-3.368,-3.3701,-3.3718,-3.3712,-3.3442,0,0,0,0,0,-3.3285,-3.3344,-3.3359,-3.3454,-3.347,-3.3469,-3.35,-3.3486,-3.3517,-3.3529,-3.3543,-3.3575,-3.363,-3.3666,-3.3718,-3.3836,-3.3842,-3.3891,-3.3908,-3.3922,-3.3934,-3.3998,-3.402,-3.3784,-3.3784,-3.3783,0,0,-3.3349,-3.3367,-3.3406,-3.3471,-3.3492,-3.3554,-3.348,-3.3548,-3.3593,-3.354,-3.3629,-3.3641,-3.3675,-3.3782,-3.3829,-3.3795,-3.4001,-3.3935,-3.3946,-3.395,-3.4011,-3.4033,-3.4053,-3.3791,-3.3789,-3.3788,0,0,-3.3496,-3.3517,-3.3598,-3.3622,-3.3656,-3.3654,-3.3674,-3.3699,-3.3705,-3.3794,-3.3755,-3.3809,-3.3905,-3.3931,-3.3957,-3.4116,-3.4083,-3.4133,-3.422,-3.4283,-3.4301,-3.4318,-3.4374,-3.4394,-3.4145,-3.4146,-3.4146,0,-3.3571,-3.3662,-3.3643,-3.3715,-3.3744,-3.3699,-3.3781,-3.3805,-3.3855,-3.3877,-3.3838,-3.3957,-3.3977,-3.409,-3.4128,-3.4151,-3.4173,-3.4129,-3.43,-3.4316,-3.4331,-3.4385,-3.4406,-3.4152,-3.4151,-3.415,-3.415,0,-3.3752,-3.3816,-3.3878,-3.3926,-3.3964,-3.404,-3.4034,-3.4074,-3.4057,-3.4059,-3.4151,-3.4174,-3.4229,-3.4255,-3.4238,-3.4365,-3.4343,-3.4303,-3.4234,-3.436,-3.441,-3.443,-3.416,-3.4158,-3.4156,-3.4155,0,0,-3.3951,-3.3989,-3.4012,-3.4034,-3.4069,-3.4118,-3.4193,-3.4247,-3.4281,-3.4318,-3.438,-3.4463,-3.4426,-3.4455,-3.4442,-3.4497,-3.4621,-3.445,-3.445,-3.448,-3.4762,-3.4791,-3.4815,-3.46,-3.4604,-3.4607,-3.4759,0,-3.4099,-3.4228,-3.4214,-3.4338,-3.4397,-3.4355,-3.442,-3.4449,-3.4454,-3.4505,-3.4511,-3.4569,-3.4517,-3.4534,-3.4587,-3.4595,-3.4677,-3.4584,-3.4658,-3.4661,-3.4649,-3.4841,-3.4872,-3.5014,-3.4778,-3.4782,-3.4784,0,-3.4288,-3.4331,-3.446,-3.4486,-3.4511,-3.457,-3.4618,-3.4667,-3.47,-3.4699,-3.4733,-3.471,-3.4786,-3.4717,-3.4822,-3.4758,-3.4788,-3.4797,-3.4802,-3.4807,-3.4729,-3.4851,-3.5059,-3.508,-3.4815,-3.4812,-3.481,0,-3.4419,-3.4509,-3.4598,-3.4618,-3.4651,-3.4694,-3.471,-3.4738,-3.4772,-3.4814,-3.4836,-3.4887,-3.4916,-3.4956,-3.4948,-3.4898,-3.5055,-3.4985,-3.5057,-3.5058,-3.5091,-3.5089,-3.5306,-3.5112,-3.5112,-3.5112,-3.5111,0,-3.4585,-3.4666,-3.4658,-3.4712,-3.4802,-3.4786,-3.4875,-3.4886,-3.4912,-3.4968,-3.4936,-3.499,-3.4976,-3.503,-3.5025,-3.5112,-3.5125,-3.5127,-3.5125,-3.513,-3.5129,-3.5148,-3.5137,-3.5117,-3.5116,-3.5115,-3.5114,0,-3.4746,-3.4744,-3.4838,-3.4862,-3.487,-3.4935,-3.4956,-3.5008,-3.501,-3.5082,-3.5098,-3.5103,-3.5165,-3.5161,-3.5231,-3.5227,-3.5335,-3.5321,-3.5324,-3.5321,-3.5393,-3.5386,-3.5629,-3.566,-3.5447,-3.5449,-3.5451,0,-3.4851,-3.4912,-3.4943,-3.4978,-3.4997,-3.5055,-3.5088,-3.5076,-3.5112,-3.5155,-3.5202,-3.526,-3.5306,-3.5407,-3.5417,-3.547,-3.5457,-3.5539,-3.5465,-3.5468,-3.5457,-3.5453,-3.5459,-3.5553,-3.5555,-3.5557,-3.5559,0,-3.5039,-3.5035,-3.5084,-3.5135,-3.5176,-3.5215,-3.525,-3.5281,-3.5272,-3.5316,-3.5378,-3.5414,-3.5485,-3.5544,-3.5595,-3.5612,-3.5585,-3.5582,-3.5602,-3.5606,-3.5605,-3.5606,-3.5362,-3.5576,-3.5574,-3.5573,-3.5572,-3.5572,-3.5174,-3.5227,-3.5256,-3.5313,-3.5339,-3.5373,-3.5423,-3.5432,-3.5484,-3.554,-3.553,-3.56,-3.5632,-3.5698,-3.572,-3.5775,-3.5746,-3.5774,-3.5781,-3.5788,-3.5796,-3.5598,-3.5784,-3.5784,-3.5783,-3.5783,-3.5783,0,-3.5359,-3.5376,-3.5429,-3.5479,-3.5524,-3.5494,-3.5533,-3.5572,-3.5634,-3.5666,-3.5712,-3.5784,-3.5841,-3.5856,-3.5911,-3.5953,-3.5941,-3.5967,-3.5964,-3.5968,-3.5819,-3.5796,-3.5976,-3.5976,-3.5976,-3.5976,-3.5976,-3.5975,-3.546,-3.5547,-3.5547,-3.5646,-3.5663,-3.5731,-3.5755,-3.5787,-3.5812,-3.5894,-3.5941,-3.5951,-3.5976,-3.6033,-3.6084,-3.6087,-3.6108,-3.614,-3.6138,-3.5998,-3.5979,-3.596,-3.5938,-3.6145,-3.6145,-3.6282,-3.6283,-3.6284]},{"header":{"parameterUnit":"m.s-1","parameterCategory":1,"la1":30.2991,"la2":30.254,"lo1":-89.0895,"lo2":-89.0444,"dy":0.0017,"dx":0.0017,"nx":28,"ny":28,"refTime":"2023-10-28T09:00:00:Z","depth":0,"parameterNumber":3,"parameterNumberName":"V-component_of_WINDS"},"data":[0,0,0,0,0,0,0,0,0,0,0,0,0,0,0,0,0,0,0,0,0,0,0,0,0,0,0,0,0,0,0,0,0,0,0,0,0,0,0,0,0,0,0,0,0,0,0,0,0,0,0,0,0,0,0,0,0,0,1.6757,1.6759,0,1.6879,1.688,1.6881,1.6899,1.6897,1.6896,1.6895,1.7018,1.7022,1.7026,0,0,0,0,0,0,0,0,0,0,0,0,0,1.6541,1.6544,1.6757,1.6759,1.676,1.6878,1.688,1.6882,1.6899,1.6897,1.6896,1.6895,1.7016,1.7021,1.7026,0,0,0,0,0,0,0,0,0,0,0,0,0,1.6645,1.6546,1.6757,1.6783,1.6787,1.6878,1.688,1.6882,1.6899,1.6897,1.6896,1.6894,1.7014,1.7021,1.7027,1.71,0,0,1.7047,1.705,0,0,0,0,0,0,0,0,1.6639,1.6653,1.6778,1.6781,1.6786,1.6872,1.6849,1.6955,1.6899,1.6856,1.6895,1.6893,1.697,1.698,1.7007,1.7106,1.7111,1.7047,1.7051,1.7054,1.7056,0,0,0,0,0,0,0,1.6632,1.6648,1.6805,1.6779,1.6784,1.6789,1.6802,1.6869,1.6921,1.686,1.6861,1.6876,1.6972,1.7,1.701,1.7113,1.7047,1.7053,1.7057,1.7059,1.7283,1.7285,0,0,0,0,0,0,1.662,1.6642,1.6801,1.6809,1.6707,1.6794,1.6809,1.6846,1.692,1.693,1.6877,1.6876,1.699,1.7002,1.7014,1.7108,1.7054,1.706,1.7064,1.7281,1.7283,1.7285,0,0,0,0,0,0,1.6616,1.6634,1.6796,1.6726,1.6747,1.68,1.6841,1.6849,1.6877,1.6933,1.6943,1.6896,1.6989,1.7005,1.708,1.7112,1.7063,1.7069,1.7278,1.7281,1.7284,1.7294,0,0,0,0,0,0,1.6609,1.6632,1.6661,1.6727,1.6751,1.686,1.6843,1.6853,1.6889,1.6889,1.6954,1.6963,1.6989,1.707,1.7086,1.712,1.7074,1.7276,1.728,1.7283,1.7291,1.7297,1.7302,0,0,0,0,0,1.6601,1.6657,1.6662,1.6681,1.6787,1.6862,1.6876,1.6905,1.6891,1.692,1.6957,1.6961,1.7105,1.7078,1.7096,1.7132,1.7274,1.7278,1.7283,1.7288,1.7296,1.7302,0,0,0,0,0,0,1.6592,1.6666,1.6672,1.6751,1.68,1.6865,1.6902,1.6911,1.6965,1.6963,1.6996,1.7011,1.7085,1.7115,1.7083,1.7209,1.7188,1.7197,1.7186,1.7194,1.7199,1.7191,1.7079,0,0,0,0,0,1.66,1.6655,1.6716,1.678,1.6804,1.6849,1.6883,1.6901,1.6953,1.6974,1.7016,1.7066,1.7123,1.716,1.7215,1.7295,1.7311,1.7329,1.7335,1.7339,1.7347,1.7395,1.7404,1.7301,1.7301,1.7301,0,0,1.6615,1.6662,1.6695,1.6779,1.682,1.6877,1.6866,1.6926,1.6969,1.6983,1.7057,1.709,1.7148,1.7227,1.7263,1.7255,1.7379,1.7345,1.7348,1.7353,1.74,1.741,1.7419,1.7304,1.7303,1.7303,0,0,1.6673,1.6713,1.6773,1.6814,1.6876,1.6906,1.692,1.6984,1.7006,1.7082,1.7094,1.7145,1.7242,1.7284,1.7318,1.7395,1.7402,1.7412,1.7441,1.7488,1.7496,1.7504,1.7534,1.7544,1.7419,1.7419,1.7419,0,1.6685,1.6771,1.6801,1.6862,1.69,1.6917,1.6978,1.7016,1.7092,1.7118,1.7107,1.7232,1.7271,1.7362,1.7381,1.7407,1.7426,1.7405,1.7493,1.75,1.7508,1.7537,1.7548,1.742,1.742,1.742,1.7419,0,1.6784,1.6843,1.6884,1.6959,1.7001,1.7062,1.7102,1.7141,1.7156,1.7188,1.7266,1.7314,1.7382,1.7404,1.7418,1.7498,1.7491,1.7486,1.7466,1.7518,1.7547,1.7558,1.7421,1.7421,1.7421,1.742,0,0,1.6839,1.6933,1.6947,1.6983,1.7054,1.7101,1.7162,1.7229,1.7264,1.7315,1.737,1.7452,1.7449,1.7488,1.7507,1.7548,1.761,1.7539,1.754,1.7553,1.7704,1.7709,1.7722,1.7614,1.7616,1.7618,1.77,0,1.6907,1.7019,1.705,1.7145,1.7202,1.722,1.7274,1.7323,1.7354,1.7408,1.7442,1.7501,1.7491,1.7515,1.7556,1.7594,1.7641,1.7588,1.7667,1.7669,1.7654,1.7736,1.7741,1.7816,1.7711,1.7713,1.7714,0,1.7002,1.7059,1.716,1.7227,1.7252,1.73,1.7366,1.7415,1.7473,1.7493,1.7537,1.7554,1.762,1.7596,1.7689,1.7652,1.7686,1.771,1.7714,1.7724,1.7696,1.7751,1.784,1.7853,1.7731,1.773,1.7729,0,1.7037,1.7138,1.7212,1.7242,1.732,1.7355,1.7389,1.7444,1.7484,1.754,1.7567,1.763,1.7665,1.7714,1.7748,1.7726,1.7839,1.7817,1.7859,1.7859,1.7884,1.7882,1.7983,1.7901,1.7901,1.79,1.79,0,1.7111,1.7173,1.723,1.7276,1.7346,1.7381,1.745,1.7484,1.7534,1.7588,1.7606,1.7656,1.7696,1.7752,1.7778,1.7854,1.7868,1.7888,1.7894,1.7888,1.7886,1.7912,1.7909,1.7904,1.7903,1.7902,1.7902,0,1.7162,1.7202,1.7285,1.7353,1.7372,1.7421,1.748,1.7526,1.7558,1.7627,1.7644,1.7695,1.7762,1.78,1.7884,1.7902,1.7987,1.7989,1.7968,1.7971,1.8013,1.801,1.8136,1.8156,1.8058,1.8059,1.806,0,1.7209,1.7257,1.7332,1.737,1.7405,1.7465,1.7506,1.7542,1.7584,1.7655,1.7693,1.7761,1.7818,1.7925,1.7969,1.8034,1.8041,1.808,1.805,1.8043,1.8045,1.8043,1.805,1.8086,1.8087,1.8088,1.8088,0,1.7288,1.7306,1.7365,1.7432,1.7481,1.7535,1.7588,1.7618,1.7663,1.771,1.778,1.7824,1.7911,1.798,1.8049,1.8084,1.8095,1.8097,1.8111,1.8106,1.8093,1.8105,1.7985,1.8095,1.8094,1.8093,1.8093,1.8093,1.7341,1.7386,1.7447,1.7512,1.7557,1.7607,1.7655,1.7694,1.7753,1.7828,1.7845,1.7919,1.7978,1.8072,1.8109,1.8168,1.8161,1.818,1.8186,1.8191,1.8194,1.8082,1.818,1.818,1.818,1.818,1.818,0,1.7424,1.7464,1.7524,1.76,1.7652,1.7658,1.7718,1.7762,1.7827,1.7881,1.7938,1.8019,1.8087,1.8137,1.8206,1.8244,1.8251,1.8261,1.826,1.8269,1.8195,1.8178,1.8255,1.8255,1.8255,1.8255,1.8255,1.8255,1.7474,1.7552,1.7578,1.7679,1.7719,1.7793,1.7827,1.7874,1.7918,1.8009,1.8065,1.8098,1.8151,1.8225,1.8288,1.8301,1.8327,1.8337,1.8351,1.8282,1.8274,1.8266,1.825,1.8342,1.8342,1.8421,1.8422,1.8422]}]]